S80/T

Satellite information

Favourite Embed

Satellite Type and Status

PAYLOADIN ORBIT

Key statistics

Satellite S80/T at a glance.

Uptime

11962

Days in orbit

Revolutions

≈ 12.9

Per day

Orbit

LEO

Low Earth Orbit

Inclination

66.1

Latest

Satellite identification and parameters

Extended collection of information and parameters for S80/T.

Object identification

Identified? True

Debris? False

Object name: S80/T

International designator: 1992-052C

Object number (NORAD): 22078

Object ID (CCSDS): 22078

Country: FRANCE (FR)

Current information (Y/N): Y

RCS size: MEDIUM

Orbital parameters

Period: 111.902 minutes

Inclination: 66.0873 deg

SMA: 7692.223 km

Apoapsis: 1317.124 km

Periapsis: 1311.052 km

RAAN: 31.8865 deg

Eccentricy: 0.0003947

Argument of periapsis: 172.0094 deg

Mean anomaly: 188.0988 deg

Mean motion: 12.86841263 rev/day

Mean motion (dot): -0.00000047 rev/day2

B* drag term: 0.000058951 1/REarth

Two-line elements (TLE)

Creation date: May 11, 2025, 2:40 a.m.

Reference frame: TEME

Reference center: EARTH

Epoch: May 10, 2025, 6:09 p.m. UTC

TLE line 0: 0 S80/T

TLE line 1: 1 22078U 92052C 25130.75630266 -.00000047 00000-0 58951-4 0 9997

TLE line 2: 2 22078 66.0873 31.8865 0003947 172.0094 188.0988 12.86841263538456

Live tracking on map

Real-time ground track for satellite S80/T.

In-orbit conjunctions

There are no conjunctions computed for S80/T, at the moment. Check back to stay up to date, as we update our databases every day.

Go to all conjunctions

Associated space launch

The TOPEX/POSEIDON satellite was launched on 10 August 1992 with the objective of "observing and understanding the ocean circulation". A joint project between NASA, the U.S. space agency, and CNES, the French space agency, it carries two radar altimeters and precise orbit determination systems, including the DORIS system. KITSAT-1 (Korean Institute of Technology Satellite) was a collaborative research mission, encompassing the installation of a groundstation in South Korea, participation of Korean engineers in the UoSAT-5 mission, technology transfer and training of students on the MSc courses at Surrey, and the involvement in a engineering and flight microsatellites. The S80/T satellite was built for CNES by Matra Marconi Space using the Surrey Satellite Technology Microbus (Uosat) bus.

S80/T was lifted into orbit during the mission ‘Ariane 42P | Topex-Poseidon, Kitsat 1 & S80/T’, on board a Ariane 42P space rocket.

The launch took place on Aug. 10, 1992, 11:08 p.m. from Ariane Launch Area 2.

For more information about the launch, click the button.

Launch to space Ariane 42P | Topex-Poseidon, Kitsat 1 & S80/T
Ariane 42P | Topex-Poseidon, Kitsat 1 & S80/T

Agency: N/A

Status: Launch Successful

Launch date: Aug. 10, 1992, 11:08 p.m. UTC

Rocket: Ariane 42P

Launch pad: Ariane Launch Area 2

Location: Guiana Space Centre, French Guiana

...

Latest news about this satellite

There are no fresh news available about this satellite. Check back as we update our databases every day.


Newsletter sign-up

Weekly statistics, charts and insights to help you stay on top of the space industry.